Погода в Нанкине

Китай     32°03′38″N   118°46′44″E
темп.,
°C
ветер,
м/с
пор.,
м/с
влажн.,
%
обл.,
%
осадки,
мм/ч
давл.,
гПа
погр.,
м
20 апреля, вт
вт2023:00+14вюв4116811 0.0 1016249
02:00+14вюв3969100 0.0 1015244
05:00+14в41066100 0.0 1015265
08:00+15вюв4106696 0.0 1016357
11:00+18вюв4758100 0.0 1016463
14:00+15в4966100 0.0 1015396
17:00+16в5126798 0.0 1014451
20:00+16в61364100 0.0 1015496
21 апреля, ср
ср2123:00+15вюв61375100 0.0 1015435
02:00+15вюв51085100 0.1 1014331
05:00+15в5108786 0.0 1014382
08:00+15в61093100 2.6 1015370
11:00+16вюв6991100 6.8 1015459
14:00+19вюв587886 8.3 1013584
17:00+18в258492 0.1 1012153
20:00+17всв2587100 0.1 1013155
22 апреля, чт
чт2223:00+16в3690100 0.0 1013168
02:00+16всв2493100 0.2 1011111
05:00+15вюв1195100 0.3 101112
08:00+18з1287100 1.1 1012274
11:00+18зсз2388100 1.1 1012391
14:00+18сз2394100 2.6 1011264
17:00+18з1289100 0.2 1010211
20:00+17ссз1193100 0.2 101212
23 апреля, пт
пт2323:00+17ссз2294100 0.0 101349
02:00+16с2496100 0.0 1012161
05:00+16с2496100 0.0 1013188
08:00+17ссв258799 0.0 1014280
11:00+20св337164 0.0 1014788
14:00+23св3360100 0.1 10131353
17:00+22св456282 0.0 1013651
20:00+18св3778100 0.0 1015198
24 апреля, сб
сб2423:00+16св3879100 0.0 1016294
02:00+14св2391100 0.0 1016111
05:00+13св3791100 0.0 1016273
08:00+14св4684100 0.0 1018497
11:00+17св3475100 0.0 1018783
14:00+19всв3468100 0.0 1016768
17:00+20всв2572100 0.0 1016735
20:00+18всв3988100 0.0 1017329